Time,TemperatureF,DewpointF,PressureIn,WindDirection,WindDirectionDegrees,WindSpeedMPH,WindSpeedGustMPH,Humidity,HourlyPrecipIn,Conditions,Clouds,dailyrainin,SoftwareType,DateUTC
2013-03-27 00:04:00,33.6,9.5,29.32,WSW,245,0.0,0.0,36,0.00,,---,0.00,VWS V13.01,2013-03-27 04:04:00,
2013-03-27 00:09:00,33.8,9.7,29.32,WSW,245,0.0,0.0,36,0.00,,---,0.00,VWS V13.01,2013-03-27 04:09:00,
2013-03-27 00:14:00,33.8,9.7,29.32,WSW,246,0.0,0.0,36,0.00,,---,0.00,VWS V13.01,2013-03-27 04:14:00,
2013-03-27 00:19:00,33.8,9.7,29.32,WSW,246,0.0,0.0,36,0.00,,---,0.00,VWS V13.01,2013-03-27 04:19:00,
2013-03-27 00:24:00,34.0,9.9,29.32,WSW,246,0.0,0.0,36,0.00,,---,0.00,VWS V13.01,2013-03-27 04:24:00,
2013-03-27 00:29:00,33.6,10.1,29.32,WSW,246,0.0,0.0,37,0.00,,---,0.00,VWS V13.01,2013-03-27 04:29:00,
2013-03-27 00:34:00,33.6,10.1,29.32,WSW,245,0.0,0.0,37,0.00,,---,0.00,VWS V13.01,2013-03-27 04:34:00,
2013-03-27 00:39:00,33.3,9.8,29.32,WSW,245,0.0,0.0,37,0.00,,---,0.00,VWS V13.01,2013-03-27 04:39:00,
2013-03-27 00:44:00,33.3,9.8,29.32,WSW,246,0.0,0.0,37,0.00,,---,0.00,VWS V13.01,2013-03-27 04:44:00,
2013-03-27 00:49:00,33.1,10.2,29.32,WSW,246,0.0,0.0,38,0.00,,---,0.00,VWS V13.01,2013-03-27 04:49:00,
2013-03-27 00:54:00,32.9,10.1,29.32,WSW,245,0.0,0.0,38,0.00,,---,0.00,VWS V13.01,2013-03-27 04:54:00,
2013-03-27 00:59:00,32.5,10.4,29.32,WSW,246,0.0,0.0,39,0.00,,---,0.00,VWS V13.01,2013-03-27 04:59:00,
2013-03-27 01:04:00,32.5,10.4,29.32,WSW,246,0.0,0.0,39,0.00,,---,0.00,VWS V13.01,2013-03-27 05:04:00,
2013-03-27 01:09:00,32.4,10.2,29.32,WSW,245,0.0,0.0,39,0.00,,---,0.00,VWS V13.01,2013-03-27 05:09:00,
2013-03-27 01:14:00,32.2,10.0,29.32,WSW,245,0.0,0.0,39,0.00,,---,0.00,VWS V13.01,2013-03-27 05:14:00,
2013-03-27 01:19:00,32.4,10.8,29.32,WSW,245,0.0,0.0,40,0.00,,---,0.00,VWS V13.01,2013-03-27 05:19:00,
2013-03-27 01:24:00,32.0,10.4,29.32,WSW,246,0.0,0.0,40,0.00,,---,0.00,VWS V13.01,2013-03-27 05:24:00,
2013-03-27 01:29:00,31.3,10.3,29.32,WSW,245,0.0,0.0,41,0.00,,---,0.00,VWS V13.01,2013-03-27 05:29:00,
2013-03-27 01:34:00,31.1,10.7,29.32,WSW,246,0.0,0.0,42,0.00,,---,0.00,VWS V13.01,2013-03-27 05:34:00,
2013-03-27 01:39:00,31.1,11.2,29.32,WSW,245,0.0,3.1,43,0.00,,---,0.00,VWS V13.01,2013-03-27 05:39:00,
2013-03-27 01:44:00,31.1,11.2,29.32,WSW,246,2.2,3.6,43,0.00,,---,0.00,VWS V13.01,2013-03-27 05:44:00,
2013-03-27 01:49:00,31.3,11.4,29.32,WSW,247,3.6,5.8,43,0.00,,---,0.00,VWS V13.01,2013-03-27 05:49:00,
2013-03-27 01:54:00,31.6,11.2,29.32,SSW,208,3.6,5.8,42,0.00,,---,0.00,VWS V13.01,2013-03-27 05:54:00,
2013-03-27 01:59:00,32.2,11.1,29.32,SSW,208,3.6,5.8,41,0.00,,---,0.00,VWS V13.01,2013-03-27 05:59:00,
2013-03-27 02:04:00,32.7,11.1,29.32,South,176,4.5,10.1,40,0.00,,---,0.00,VWS V13.01,2013-03-27 06:04:00,
2013-03-27 02:09:00,33.4,10.0,29.32,South,185,4.0,5.8,37,0.00,,---,0.00,VWS V13.01,2013-03-27 06:09:00,
2013-03-27 02:14:00,33.8,9.1,29.32,South,190,3.1,6.3,35,0.00,,---,0.00,VWS V13.01,2013-03-27 06:14:00,
2013-03-27 02:19:00,34.0,7.9,29.32,SW,215,4.9,4.9,33,0.00,,---,0.00,VWS V13.01,2013-03-27 06:19:00,
2013-03-27 02:24:00,34.3,8.2,29.32,SW,215,3.1,4.9,33,0.00,,---,0.00,VWS V13.01,2013-03-27 06:24:00,
2013-03-27 02:29:00,34.3,7.6,29.32,South,175,3.6,6.3,32,0.00,,---,0.00,VWS V13.01,2013-03-27 06:29:00,
2013-03-27 02:34:00,34.5,7.7,29.32,South,189,2.7,7.6,32,0.00,,---,0.00,VWS V13.01,2013-03-27 06:34:00,
2013-03-27 02:39:00,34.5,7.0,29.32,South,187,3.6,6.3,31,0.00,,---,0.00,VWS V13.01,2013-03-27 06:39:00,
2013-03-27 02:44:00,34.7,7.2,29.32,SSW,202,3.6,8.3,31,0.00,,---,0.00,VWS V13.01,2013-03-27 06:44:00,
2013-03-27 02:49:00,34.9,7.3,29.32,South,189,5.4,7.6,31,0.00,,---,0.00,VWS V13.01,2013-03-27 06:49:00,
2013-03-27 02:54:00,34.9,7.3,29.32,SSW,207,5.4,7.6,31,0.00,,---,0.00,VWS V13.01,2013-03-27 06:54:00,
2013-03-27 02:59:00,34.9,7.3,29.32,SSW,203,7.6,10.1,31,0.00,,---,0.00,VWS V13.01,2013-03-27 06:59:00,
2013-03-27 03:04:00,34.9,7.3,29.32,SSW,192,5.4,8.3,31,0.00,,---,0.00,VWS V13.01,2013-03-27 07:04:00,
2013-03-27 03:09:00,35.1,7.5,29.32,SSW,207,5.4,6.3,31,0.00,,---,0.00,VWS V13.01,2013-03-27 07:09:00,
2013-03-27 03:14:00,34.9,7.3,29.32,South,181,4.9,7.2,31,0.00,,---,0.00,VWS V13.01,2013-03-27 07:14:00,
2013-03-27 03:19:00,34.9,7.3,29.29,South,184,5.4,7.6,31,0.00,,---,0.00,VWS V13.01,2013-03-27 07:19:00,
2013-03-27 03:24:00,34.9,7.3,29.29,South,176,7.6,7.6,31,0.00,,---,0.00,VWS V13.01,2013-03-27 07:24:00,
2013-03-27 03:29:00,34.9,7.3,29.29,SSW,197,4.0,8.3,31,0.00,,---,0.00,VWS V13.01,2013-03-27 07:29:00,
2013-03-27 03:34:00,34.9,7.3,29.29,SSW,201,3.1,8.3,31,0.00,,---,0.00,VWS V13.01,2013-03-27 07:34:00,
2013-03-27 03:39:00,34.7,7.2,29.29,SW,218,5.8,6.7,31,0.00,,---,0.00,VWS V13.01,2013-03-27 07:39:00,
2013-03-27 03:44:00,34.5,7.0,29.29,SW,217,4.0,8.3,31,0.00,,---,0.00,VWS V13.01,2013-03-27 07:44:00,
2013-03-27 03:49:00,34.5,7.0,29.29,SSW,195,5.8,8.1,31,0.00,,---,0.00,VWS V13.01,2013-03-27 07:49:00,
2013-03-27 03:54:00,34.3,6.9,29.29,SSW,196,4.5,8.1,31,0.00,,---,0.00,VWS V13.01,2013-03-27 07:54:00,
2013-03-27 03:59:00,34.3,6.9,29.29,SSW,197,4.9,8.1,31,0.00,,---,0.00,VWS V13.01,2013-03-27 07:59:00,
2013-03-27 04:04:00,34.3,6.9,29.29,SSW,200,4.0,7.6,31,0.00,,---,0.00,VWS V13.01,2013-03-27 08:04:00,
2013-03-27 04:09:00,34.3,6.9,29.29,SSW,196,5.8,6.7,31,0.00,,---,0.00,VWS V13.01,2013-03-27 08:09:00,
2013-03-27 04:14:00,34.2,6.7,29.29,South,191,5.4,6.3,31,0.00,,---,0.00,VWS V13.01,2013-03-27 08:14:00,
2013-03-27 04:19:00,34.2,6.7,29.29,South,191,4.0,8.3,31,0.00,,---,0.00,VWS V13.01,2013-03-27 08:19:00,
2013-03-27 04:24:00,34.2,6.7,29.29,SSW,213,6.3,8.7,31,0.00,,---,0.00,VWS V13.01,2013-03-27 08:24:00,
2013-03-27 04:29:00,34.2,6.7,29.29,South,189,3.6,7.6,31,0.00,,---,0.00,VWS V13.01,2013-03-27 08:29:00,
2013-03-27 04:34:00,34.2,6.7,29.29,South,181,4.0,6.7,31,0.00,,---,0.00,VWS V13.01,2013-03-27 08:34:00,
2013-03-27 04:39:00,34.0,6.5,29.29,SSW,202,4.0,6.3,31,0.00,,---,0.00,VWS V13.01,2013-03-27 08:39:00,
2013-03-27 04:44:00,34.0,6.5,29.29,SSW,194,3.6,7.6,31,0.00,,---,0.00,VWS V13.01,2013-03-27 08:44:00,
2013-03-27 04:49:00,33.8,6.4,29.29,SSW,193,4.0,6.3,31,0.00,,---,0.00,VWS V13.01,2013-03-27 08:49:00,
2013-03-27 04:54:00,33.6,6.2,29.29,South,190,3.1,5.4,31,0.00,,---,0.00,VWS V13.01,2013-03-27 08:54:00,
2013-03-27 04:59:00,33.4,6.1,29.29,SSW,192,3.1,4.0,31,0.00,,---,0.00,VWS V13.01,2013-03-27 08:59:00,
2013-03-27 05:04:00,33.3,5.9,29.29,SSW,192,3.6,4.0,31,0.00,,---,0.00,VWS V13.01,2013-03-27 09:04:00,
2013-03-27 05:09:00,33.1,6.4,29.29,SSW,193,3.1,3.6,32,0.00,,---,0.00,VWS V13.01,2013-03-27 09:09:00,
2013-03-27 05:14:00,32.7,6.1,29.29,South,191,3.1,4.0,32,0.00,,---,0.00,VWS V13.01,2013-03-27 09:14:00,
2013-03-27 05:19:00,32.5,6.6,29.29,South,188,2.2,4.9,33,0.00,,---,0.00,VWS V13.01,2013-03-27 09:19:00,
2013-03-27 05:24:00,32.4,7.1,29.29,SSW,197,4.9,5.4,34,0.00,,---,0.00,VWS V13.01,2013-03-27 09:24:00,
2013-03-27 05:29:00,32.2,7.0,29.29,SSW,196,3.1,5.4,34,0.00,,---,0.00,VWS V13.01,2013-03-27 09:29:00,
2013-03-27 05:34:00,32.0,6.8,29.29,South,191,3.1,4.5,34,0.00,,---,0.00,VWS V13.01,2013-03-27 09:34:00,
2013-03-27 05:39:00,32.0,6.8,29.29,South,191,3.6,3.6,34,0.00,,---,0.00,VWS V13.01,2013-03-27 09:39:00,
2013-03-27 05:44:00,31.8,6.7,29.29,SSW,197,4.9,5.4,34,0.00,,---,0.00,VWS V13.01,2013-03-27 09:44:00,
2013-03-27 05:49:00,31.6,6.5,29.29,SSW,195,3.1,5.8,34,0.00,,---,0.00,VWS V13.01,2013-03-27 09:49:00,
2013-03-27 05:54:00,31.8,6.7,29.29,SSW,194,4.0,6.3,34,0.00,,---,0.00,VWS V13.01,2013-03-27 09:54:00,
2013-03-27 05:59:00,32.0,6.8,29.29,SSW,194,5.4,6.3,34,0.00,,---,0.00,VWS V13.01,2013-03-27 09:59:00,
2013-03-27 06:04:00,32.0,6.8,29.29,North,357,3.1,6.3,34,0.00,,---,0.00,VWS V13.01,2013-03-27 10:04:00,
2013-03-27 06:14:00,31.6,6.5,29.29,North,357,3.1,4.0,34,0.00,,---,0.00,VWS V13.01,2013-03-27 10:14:00,
2013-03-27 06:19:00,31.6,7.1,29.32,North,357,4.0,6.3,35,0.00,,---,0.00,VWS V13.01,2013-03-27 10:19:00,
2013-03-27 06:24:00,31.6,7.1,29.32,SSW,194,3.1,5.8,35,0.00,,---,0.00,VWS V13.01,2013-03-27 10:24:00,
2013-03-27 06:29:00,31.5,7.0,29.32,North,357,5.4,5.4,35,0.00,,---,0.00,VWS V13.01,2013-03-27 10:29:00,
2013-03-27 06:34:00,31.3,7.4,29.29,North,357,3.1,5.4,36,0.00,,---,0.00,VWS V13.01,2013-03-27 10:34:00,
2013-03-27 06:44:00,31.1,7.3,29.29,South,190,2.7,5.4,36,0.00,,---,0.00,VWS V13.01,2013-03-27 10:44:00,
2013-03-27 06:49:00,31.1,7.9,29.32,North,357,2.7,4.0,37,0.00,,---,0.00,VWS V13.01,2013-03-27 10:49:00,
2013-03-27 06:54:00,31.1,7.9,29.32,North,357,2.2,3.1,37,0.00,,---,0.00,VWS V13.01,2013-03-27 10:54:00,
2013-03-27 06:59:00,31.1,7.9,29.32,North,357,3.1,3.1,37,0.00,,---,0.00,VWS V13.01,2013-03-27 10:59:00,
2013-03-27 07:09:00,31.1,8.5,29.32,North,357,3.1,3.1,38,0.00,,---,0.00,VWS V13.01,2013-03-27 11:09:00,
2013-03-27 07:14:00,31.3,9.2,29.32,North,357,3.6,4.0,39,0.00,,---,0.00,VWS V13.01,2013-03-27 11:14:00,
2013-03-27 07:19:00,31.6,9.5,29.32,North,357,2.2,5.4,39,0.00,,---,0.00,VWS V13.01,2013-03-27 11:19:00,
2013-03-27 07:24:00,32.4,10.2,29.32,North,357,3.1,5.4,39,0.00,,---,0.00,VWS V13.01,2013-03-27 11:24:00,
2013-03-27 07:29:00,33.3,9.8,29.32,SSW,203,4.9,5.8,37,0.00,,---,0.00,VWS V13.01,2013-03-27 11:29:00,
2013-03-27 07:34:00,34.3,8.2,29.32,South,186,5.8,6.3,33,0.00,,---,0.00,VWS V13.01,2013-03-27 11:34:00,
2013-03-27 07:39:00,35.2,8.4,29.32,SSW,212,3.1,6.3,32,0.00,,---,0.00,VWS V13.01,2013-03-27 11:39:00,
2013-03-27 07:44:00,36.3,7.9,29.32,SSW,192,5.8,6.3,30,0.00,,---,0.00,VWS V13.01,2013-03-27 11:44:00,
2013-03-27 07:49:00,37.2,8.6,29.32,SSW,196,4.0,6.3,30,0.00,,---,0.00,VWS V13.01,2013-03-27 11:49:00,
2013-03-27 07:54:00,37.9,8.5,29.32,South,183,4.0,7.6,29,0.00,,---,0.00,VWS V13.01,2013-03-27 11:54:00,
2013-03-27 07:59:00,38.7,9.2,29.32,South,175,4.0,7.6,29,0.00,,---,0.00,VWS V13.01,2013-03-27 11:59:00,
2013-03-27 08:04:00,39.2,8.9,29.32,South,175,8.7,8.7,28,0.00,,---,0.00,VWS V13.01,2013-03-27 12:04:00,
2013-03-27 08:09:00,39.7,9.3,29.32,SSW,212,4.0,8.7,28,0.00,,---,0.00,VWS V13.01,2013-03-27 12:09:00,
2013-03-27 08:14:00,39.9,9.5,29.32,South,182,4.0,7.6,28,0.00,,---,0.00,VWS V13.01,2013-03-27 12:14:00,
2013-03-27 08:19:00,40.5,8.3,29.32,South,169,5.8,6.7,26,0.00,,---,0.00,VWS V13.01,2013-03-27 12:19:00,
2013-03-27 08:24:00,40.6,8.4,29.32,SW,217,6.3,7.6,26,0.00,,---,0.00,VWS V13.01,2013-03-27 12:24:00,
2013-03-27 08:29:00,40.8,8.6,29.32,South,189,7.6,8.1,26,0.00,,---,0.00,VWS V13.01,2013-03-27 12:29:00,
2013-03-27 08:34:00,41.0,8.8,29.32,SW,220,4.9,7.6,26,0.00,,---,0.00,VWS V13.01,2013-03-27 12:34:00,
2013-03-27 08:39:00,41.5,9.2,29.32,SE,143,4.0,8.1,26,0.00,,---,0.00,VWS V13.01,2013-03-27 12:39:00,
2013-03-27 08:49:00,42.1,9.7,29.32,South,188,5.4,11.0,26,0.00,,---,0.00,VWS V13.01,2013-03-27 12:49:00,
2013-03-27 08:54:00,42.3,9.8,29.32,South,190,7.6,10.5,26,0.00,,---,0.00,VWS V13.01,2013-03-27 12:54:00,
2013-03-27 08:59:00,42.3,9.8,29.32,WNW,300,3.1,8.3,26,0.00,,---,0.00,VWS V13.01,2013-03-27 12:59:00,
2013-03-27 09:04:00,42.4,10.0,29.35,SSE,158,4.9,5.8,26,0.00,,---,0.00,VWS V13.01,2013-03-27 13:04:00,
2013-03-27 09:09:00,43.2,7.9,29.35,SW,218,2.7,6.3,23,0.00,,---,0.00,VWS V13.01,2013-03-27 13:09:00,
2013-03-27 09:14:00,43.0,7.7,29.35,WNW,288,4.0,11.0,23,0.00,,---,0.00,VWS V13.01,2013-03-27 13:14:00,
2013-03-27 09:19:00,43.2,7.9,29.35,North,357,8.7,10.1,23,0.00,,---,0.00,VWS V13.01,2013-03-27 13:19:00,
2013-03-27 09:24:00,43.3,8.0,29.35,SSE,150,5.8,10.5,23,0.00,,---,0.00,VWS V13.01,2013-03-27 13:24:00,
2013-03-27 09:29:00,43.7,8.3,29.35,South,180,6.3,8.7,23,0.00,,---,0.00,VWS V13.01,2013-03-27 13:29:00,
2013-03-27 09:34:00,44.2,8.8,29.35,SW,230,4.5,11.4,23,0.00,,---,0.00,VWS V13.01,2013-03-27 13:34:00,
2013-03-27 09:39:00,44.6,8.1,29.35,South,173,5.4,10.1,22,0.00,,---,0.00,VWS V13.01,2013-03-27 13:39:00,
2013-03-27 09:44:00,44.2,8.8,29.35,West,263,7.2,7.2,23,0.00,,---,0.00,VWS V13.01,2013-03-27 13:44:00,
2013-03-27 09:49:00,44.8,8.3,29.38,SSE,163,5.8,8.7,22,0.00,,---,0.00,VWS V13.01,2013-03-27 13:49:00,
2013-03-27 09:54:00,44.6,8.1,29.38,SSW,211,5.4,10.5,22,0.00,,---,0.00,VWS V13.01,2013-03-27 13:54:00,
2013-03-27 09:59:00,45.1,8.6,29.38,SSW,209,10.5,11.0,22,0.00,,---,0.00,VWS V13.01,2013-03-27 13:59:00,
2013-03-27 10:04:00,45.5,8.9,29.38,South,190,10.1,10.5,22,0.00,,---,0.00,VWS V13.01,2013-03-27 14:04:00,
2013-03-27 10:09:00,45.9,9.2,29.38,SW,216,5.8,11.0,22,0.00,,---,0.00,VWS V13.01,2013-03-27 14:09:00,
2013-03-27 10:14:00,46.4,9.6,29.38,SSE,166,3.6,11.0,22,0.00,,---,0.00,VWS V13.01,2013-03-27 14:14:00,
2013-03-27 10:19:00,46.9,10.1,29.38,South,179,4.0,11.9,22,0.00,,---,0.00,VWS V13.01,2013-03-27 14:19:00,
2013-03-27 10:24:00,46.9,10.1,29.38,WSW,244,0.0,7.6,22,0.00,,---,0.00,VWS V13.01,2013-03-27 14:24:00,
2013-03-27 10:29:00,46.9,10.1,29.38,SSW,204,3.6,6.3,22,0.00,,---,0.00,VWS V13.01,2013-03-27 14:29:00,
2013-03-27 10:34:00,47.3,10.4,29.38,South,171,5.8,8.1,22,0.00,,---,0.00,VWS V13.01,2013-03-27 14:34:00,
2013-03-27 10:39:00,47.7,10.7,29.38,SSE,157,3.1,6.3,22,0.00,,---,0.00,VWS V13.01,2013-03-27 14:39:00,
2013-03-27 10:44:00,48.0,11.0,29.38,South,172,5.8,8.1,22,0.00,,---,0.00,VWS V13.01,2013-03-27 14:44:00,
2013-03-27 10:54:00,48.2,10.1,29.38,NW,312,7.6,7.6,21,0.00,,---,0.00,VWS V13.01,2013-03-27 14:54:00,
2013-03-27 10:59:00,47.7,10.7,29.38,SW,217,4.9,7.6,22,0.00,,---,0.00,VWS V13.01,2013-03-27 14:59:00,
2013-03-27 11:04:00,48.2,10.1,29.35,South,188,4.0,8.1,21,0.00,,---,0.00,VWS V13.01,2013-03-27 15:04:00,
2013-03-27 11:09:00,48.9,10.7,29.35,SSE,162,3.1,13.6,21,0.00,,---,0.00,VWS V13.01,2013-03-27 15:09:00,
2013-03-27 11:14:00,49.1,10.9,29.35,SSW,206,7.6,10.1,21,0.00,,---,0.00,VWS V13.01,2013-03-27 15:14:00,
2013-03-27 11:19:00,49.3,11.0,29.38,SSE,165,7.6,11.0,21,0.00,,---,0.00,VWS V13.01,2013-03-27 15:19:00,
2013-03-27 11:24:00,48.4,10.3,29.38,WSW,246,9.6,11.0,21,0.00,,---,0.00,VWS V13.01,2013-03-27 15:24:00,
2013-03-27 11:29:00,48.7,10.6,29.38,West,264,3.6,9.6,21,0.00,,---,0.00,VWS V13.01,2013-03-27 15:29:00,
2013-03-27 11:34:00,49.3,11.0,29.38,SSW,196,8.1,10.5,21,0.00,,---,0.00,VWS V13.01,2013-03-27 15:34:00,
2013-03-27 11:39:00,49.1,10.9,29.38,South,179,8.7,8.7,21,0.00,,---,0.00,VWS V13.01,2013-03-27 15:39:00,
2013-03-27 11:44:00,49.1,10.9,29.38,South,170,4.0,8.7,21,0.00,,---,0.00,VWS V13.01,2013-03-27 15:44:00,
2013-03-27 11:49:00,50.0,11.6,29.38,SSE,167,6.3,15.0,21,0.00,,---,0.00,VWS V13.01,2013-03-27 15:49:00,
2013-03-27 11:54:00,50.7,12.2,29.38,South,176,3.1,8.7,21,0.00,,---,0.00,VWS V13.01,2013-03-27 15:54:00,
2013-03-27 11:59:00,51.1,12.5,29.38,SSE,164,5.4,12.8,21,0.00,,---,0.00,VWS V13.01,2013-03-27 15:59:00,
2013-03-27 12:04:00,49.5,8.9,29.38,West,279,0.0,11.0,19,0.00,,---,0.00,VWS V13.01,2013-03-27 16:04:00,
2013-03-27 12:09:00,50.4,9.7,29.38,SSE,163,8.3,11.0,19,0.00,,---,0.00,VWS V13.01,2013-03-27 16:09:00,
2013-03-27 12:14:00,51.4,12.8,29.38,SSE,163,8.3,15.0,21,0.00,,---,0.00,VWS V13.01,2013-03-27 16:14:00,
2013-03-27 12:19:00,51.8,9.7,29.38,NW,324,8.7,10.5,18,0.00,,---,0.00,VWS V13.01,2013-03-27 16:19:00,
2013-03-27 12:24:00,51.1,10.3,29.38,South,178,12.3,12.3,19,0.00,,---,0.00,VWS V13.01,2013-03-27 16:24:00,
2013-03-27 12:29:00,51.4,10.6,29.38,WNW,302,3.6,12.3,19,0.00,,---,0.00,VWS V13.01,2013-03-27 16:29:00,
2013-03-27 12:34:00,51.8,9.7,29.38,South,182,10.1,10.1,18,0.00,,---,0.00,VWS V13.01,2013-03-27 16:34:00,
2013-03-27 12:39:00,51.1,10.3,29.38,South,177,7.6,11.0,19,0.00,,---,0.00,VWS V13.01,2013-03-27 16:39:00,
2013-03-27 12:49:00,52.3,10.1,29.38,SSE,159,15.0,15.0,18,0.00,,---,0.00,VWS V13.01,2013-03-27 16:49:00,
2013-03-27 12:54:00,52.0,9.8,29.38,SSW,195,5.4,15.0,18,0.00,,---,0.00,VWS V13.01,2013-03-27 16:54:00,
2013-03-27 13:04:00,52.5,13.7,29.35,SSE,151,2.7,11.0,21,0.00,,---,0.00,VWS V13.01,2013-03-27 17:04:00,
2013-03-27 13:09:00,51.6,10.7,29.35,South,178,8.1,11.0,19,0.00,,---,0.00,VWS V13.01,2013-03-27 17:09:00,
2013-03-27 13:14:00,51.6,10.7,29.35,SW,216,4.0,13.2,19,0.00,,---,0.00,VWS V13.01,2013-03-27 17:14:00,
2013-03-27 13:19:00,50.7,10.0,29.35,SSE,161,5.8,13.2,19,0.00,,---,0.00,VWS V13.01,2013-03-27 17:19:00,
2013-03-27 13:24:00,50.2,9.5,29.35,SSE,158,6.3,12.3,19,0.00,,---,0.00,VWS V13.01,2013-03-27 17:24:00,
2013-03-27 13:29:00,50.4,9.7,29.35,WSW,246,7.6,10.5,19,0.00,,---,0.00,VWS V13.01,2013-03-27 17:29:00,
2013-03-27 13:39:00,53.2,10.9,29.35,South,183,8.7,11.0,18,0.00,,---,0.00,VWS V13.01,2013-03-27 17:39:00,
2013-03-27 13:44:00,54.0,11.4,29.35,West,261,5.4,12.3,18,0.00,,---,0.00,VWS V13.01,2013-03-27 17:44:00,
2013-03-27 13:49:00,53.4,11.0,29.35,SSE,158,6.7,14.1,18,0.00,,---,0.00,VWS V13.01,2013-03-27 17:49:00,
2013-03-27 13:54:00,52.7,10.4,29.35,South,176,8.3,9.2,18,0.00,,---,0.00,VWS V13.01,2013-03-27 17:54:00,
2013-03-27 13:59:00,52.3,10.1,29.35,South,183,6.3,12.3,18,0.00,,---,0.00,VWS V13.01,2013-03-27 17:59:00,
2013-03-27 14:04:00,52.9,10.6,29.35,SSE,167,5.8,10.1,18,0.00,,---,0.00,VWS V13.01,2013-03-27 18:04:00,
2013-03-27 14:09:00,54.9,12.2,29.35,South,174,3.6,11.4,18,0.00,,---,0.00,VWS V13.01,2013-03-27 18:09:00,
2013-03-27 14:14:00,56.7,12.4,29.35,NW,305,4.0,10.1,17,0.00,,---,0.00,VWS V13.01,2013-03-27 18:14:00,
2013-03-27 14:19:00,54.3,11.7,29.35,SSE,150,5.4,8.1,18,0.00,,---,0.00,VWS V13.01,2013-03-27 18:19:00,
2013-03-27 14:24:00,52.9,10.6,29.35,South,184,2.7,10.5,18,0.00,,---,0.00,VWS V13.01,2013-03-27 18:24:00,
2013-03-27 14:29:00,52.3,10.1,29.35,SSW,196,8.3,15.0,18,0.00,,---,0.00,VWS V13.01,2013-03-27 18:29:00,
2013-03-27 14:34:00,53.8,11.3,29.35,WNW,298,5.8,8.3,18,0.00,,---,0.00,VWS V13.01,2013-03-27 18:34:00,
2013-03-27 14:39:00,55.6,11.5,29.35,SSE,156,6.3,12.8,17,0.00,,---,0.00,VWS V13.01,2013-03-27 18:39:00,
2013-03-27 14:49:00,54.3,11.7,29.35,SSW,196,13.2,13.2,18,0.00,,---,0.00,VWS V13.01,2013-03-27 18:49:00,
2013-03-27 14:54:00,53.6,11.1,29.35,SSW,198,3.1,14.1,18,0.00,,---,0.00,VWS V13.01,2013-03-27 18:54:00,
2013-03-27 14:59:00,53.2,10.9,29.35,SSE,166,2.2,16.3,18,0.00,,---,0.00,VWS V13.01,2013-03-27 18:59:00,
2013-03-27 15:04:00,53.6,11.1,29.35,South,187,5.8,9.2,18,0.00,,---,0.00,VWS V13.01,2013-03-27 19:04:00,
2013-03-27 15:09:00,55.2,12.5,29.35,SW,222,5.4,8.7,18,0.00,,---,0.00,VWS V13.01,2013-03-27 19:09:00,
2013-03-27 15:14:00,54.9,12.2,29.35,SSW,196,5.4,16.8,18,0.00,,---,0.00,VWS V13.01,2013-03-27 19:14:00,
2013-03-27 15:19:00,55.6,11.5,29.35,SSE,165,6.3,11.4,17,0.00,,---,0.00,VWS V13.01,2013-03-27 19:19:00,
2013-03-27 15:24:00,55.9,11.8,29.35,South,183,8.3,11.0,17,0.00,,---,0.00,VWS V13.01,2013-03-27 19:24:00,
2013-03-27 15:29:00,56.5,12.2,29.35,East,92,2.7,18.8,17,0.00,,---,0.00,VWS V13.01,2013-03-27 19:29:00,
2013-03-27 15:34:00,56.5,12.2,29.35,West,280,3.1,17.4,17,0.00,,---,0.00,VWS V13.01,2013-03-27 19:34:00,
2013-03-27 15:39:00,57.2,12.8,29.35,South,191,4.0,17.9,17,0.00,,---,0.00,VWS V13.01,2013-03-27 19:39:00,
2013-03-27 15:44:00,53.1,10.7,29.35,SSW,198,8.1,13.2,18,0.00,,---,0.00,VWS V13.01,2013-03-27 19:44:00,
2013-03-27 15:49:00,54.9,12.2,29.35,South,171,13.2,14.5,18,0.00,,---,0.00,VWS V13.01,2013-03-27 19:49:00,
2013-03-27 15:54:00,56.1,11.9,29.35,SSE,150,12.8,13.2,17,0.00,,---,0.00,VWS V13.01,2013-03-27 19:54:00,
2013-03-27 15:59:00,56.5,12.2,29.35,South,174,5.8,12.8,17,0.00,,---,0.00,VWS V13.01,2013-03-27 19:59:00,
2013-03-27 16:04:00,55.2,12.5,29.35,South,184,6.3,13.6,18,0.00,,---,0.00,VWS V13.01,2013-03-27 20:04:00,
2013-03-27 16:09:00,55.9,11.8,29.35,South,189,4.9,8.3,17,0.00,,---,0.00,VWS V13.01,2013-03-27 20:09:00,
2013-03-27 16:14:00,55.2,12.5,29.35,SSE,167,2.7,10.1,18,0.00,,---,0.00,VWS V13.01,2013-03-27 20:14:00,
2013-03-27 16:19:00,55.9,11.8,29.35,South,172,11.0,12.8,17,0.00,,---,0.00,VWS V13.01,2013-03-27 20:19:00,
2013-03-27 16:24:00,56.7,12.4,29.35,SW,220,4.0,15.0,17,0.00,,---,0.00,VWS V13.01,2013-03-27 20:24:00,
2013-03-27 16:29:00,52.0,9.8,29.35,WSW,256,10.5,14.5,18,0.00,,---,0.00,VWS V13.01,2013-03-27 20:29:00,
2013-03-27 16:39:00,49.5,8.9,29.38,West,270,8.1,11.0,19,0.00,,---,0.00,VWS V13.01,2013-03-27 20:39:00,
2013-03-27 16:44:00,48.9,8.5,29.38,SSW,206,6.3,13.2,19,0.00,,---,0.00,VWS V13.01,2013-03-27 20:44:00,
2013-03-27 16:49:00,49.3,8.8,29.38,SW,235,11.9,11.9,19,0.00,,---,0.00,VWS V13.01,2013-03-27 20:49:00,
2013-03-27 16:59:00,52.7,10.4,29.38,West,260,3.1,10.5,18,0.00,,---,0.00,VWS V13.01,2013-03-27 20:59:00,
2013-03-27 17:04:00,53.1,10.7,29.38,SE,142,4.0,9.2,18,0.00,,---,0.00,VWS V13.01,2013-03-27 21:04:00,
2013-03-27 17:09:00,53.4,11.0,29.38,West,268,3.6,8.7,18,0.00,,---,0.00,VWS V13.01,2013-03-27 21:09:00,
2013-03-27 17:14:00,51.3,10.4,29.38,SSW,194,5.8,10.5,19,0.00,,---,0.00,VWS V13.01,2013-03-27 21:14:00,
2013-03-27 17:19:00,53.1,10.7,29.38,WNW,283,3.6,10.5,18,0.00,,---,0.00,VWS V13.01,2013-03-27 21:19:00,
2013-03-27 17:24:00,52.5,10.2,29.38,WSW,245,2.7,9.2,18,0.00,,---,0.00,VWS V13.01,2013-03-27 21:24:00,
2013-03-27 17:29:00,52.3,10.1,29.38,SSE,168,5.8,15.0,18,0.00,,---,0.00,VWS V13.01,2013-03-27 21:29:00,
2013-03-27 17:34:00,52.7,10.4,29.38,SSW,209,2.7,8.1,18,0.00,,---,0.00,VWS V13.01,2013-03-27 21:34:00,
2013-03-27 17:39:00,54.1,11.6,29.38,SW,217,8.3,8.3,18,0.00,,---,0.00,VWS V13.01,2013-03-27 21:39:00,
2013-03-27 17:44:00,53.6,11.1,29.38,South,177,4.0,11.0,18,0.00,,---,0.00,VWS V13.01,2013-03-27 21:44:00,
2013-03-27 17:49:00,52.0,9.8,29.38,West,272,11.0,13.2,18,0.00,,---,0.00,VWS V13.01,2013-03-27 21:49:00,
2013-03-27 17:54:00,50.5,9.8,29.38,South,179,8.3,11.0,19,0.00,,---,0.00,VWS V13.01,2013-03-27 21:54:00,
2013-03-27 17:59:00,51.3,10.4,29.38,South,176,6.7,8.3,19,0.00,,---,0.00,VWS V13.01,2013-03-27 21:59:00,
2013-03-27 18:04:00,51.1,10.3,29.38,SSW,193,7.6,12.8,19,0.00,,---,0.00,VWS V13.01,2013-03-27 22:04:00,
2013-03-27 18:09:00,50.5,9.8,29.38,South,179,7.6,7.6,19,0.00,,---,0.00,VWS V13.01,2013-03-27 22:09:00,
2013-03-27 18:14:00,50.0,9.4,29.38,SSW,200,3.6,12.3,19,0.00,,---,0.00,VWS V13.01,2013-03-27 22:14:00,
2013-03-27 18:19:00,49.8,9.2,29.38,SSW,193,3.1,6.3,19,0.00,,---,0.00,VWS V13.01,2013-03-27 22:19:00,
2013-03-27 18:24:00,50.0,9.4,29.38,SE,140,5.4,8.7,19,0.00,,---,0.00,VWS V13.01,2013-03-27 22:24:00,
2013-03-27 18:29:00,49.6,9.1,29.38,SSW,197,8.7,10.1,19,0.00,,---,0.00,VWS V13.01,2013-03-27 22:29:00,
2013-03-27 18:34:00,49.3,8.8,29.38,SE,138,4.9,8.7,19,0.00,,---,0.00,VWS V13.01,2013-03-27 22:34:00,
2013-03-27 18:39:00,48.9,8.5,29.38,South,169,7.6,7.6,19,0.00,,---,0.00,VWS V13.01,2013-03-27 22:39:00,
2013-03-27 18:44:00,48.6,8.2,29.38,South,171,3.1,8.1,19,0.00,,---,0.00,VWS V13.01,2013-03-27 22:44:00,
2013-03-27 18:49:00,48.4,8.0,29.38,SSE,160,5.8,8.1,19,0.00,,---,0.00,VWS V13.01,2013-03-27 22:49:00,
2013-03-27 18:54:00,48.0,7.7,29.38,South,178,3.6,6.3,19,0.00,,---,0.00,VWS V13.01,2013-03-27 22:54:00,
2013-03-27 18:59:00,47.8,7.6,29.38,SSW,192,5.8,8.7,19,0.00,,---,0.00,VWS V13.01,2013-03-27 22:59:00,
2013-03-27 19:04:00,47.7,7.4,29.38,SSW,212,3.1,5.8,19,0.00,,---,0.00,VWS V13.01,2013-03-27 23:04:00,
2013-03-27 19:09:00,47.5,7.3,29.38,SSW,207,0.0,4.0,19,0.00,,---,0.00,VWS V13.01,2013-03-27 23:09:00,
2013-03-27 19:14:00,47.3,7.1,29.38,SSW,207,0.0,2.7,19,0.00,,---,0.00,VWS V13.01,2013-03-27 23:14:00,
2013-03-27 19:19:00,47.1,7.0,29.38,SSW,207,2.7,3.6,19,0.00,,---,0.00,VWS V13.01,2013-03-27 23:19:00,
2013-03-27 19:24:00,46.8,6.7,29.38,SSW,208,2.7,4.5,19,0.00,,---,0.00,VWS V13.01,2013-03-27 23:24:00,
2013-03-27 19:34:00,46.4,6.4,29.41,SSW,207,0.0,2.7,19,0.00,,---,0.00,VWS V13.01,2013-03-27 23:34:00,
2013-03-27 19:39:00,46.0,7.2,29.41,SSW,207,0.0,0.0,20,0.00,,---,0.00,VWS V13.01,2013-03-27 23:39:00,
2013-03-27 19:44:00,45.9,7.1,29.41,SSW,207,5.4,5.4,20,0.00,,---,0.00,VWS V13.01,2013-03-27 23:44:00,
2013-03-27 19:49:00,45.7,6.9,29.41,SSW,207,2.7,5.4,20,0.00,,---,0.00,VWS V13.01,2013-03-27 23:49:00,
2013-03-27 19:54:00,45.7,6.9,29.41,SSW,207,3.6,4.0,20,0.00,,---,0.00,VWS V13.01,2013-03-27 23:54:00,
2013-03-27 19:59:00,45.5,6.8,29.41,SSW,210,2.7,7.2,20,0.00,,---,0.00,VWS V13.01,2013-03-27 23:59:00,
2013-03-27 20:04:00,45.7,6.9,29.41,SSW,210,0.0,4.9,20,0.00,,---,0.00,VWS V13.01,2013-03-28 00:04:00,
2013-03-27 20:09:00,45.3,6.6,29.41,SSW,210,0.0,3.1,20,0.00,,---,0.00,VWS V13.01,2013-03-28 00:09:00,
2013-03-27 20:14:00,45.1,6.5,29.41,SSW,210,0.0,3.6,20,0.00,,---,0.00,VWS V13.01,2013-03-28 00:14:00,
2013-03-27 20:19:00,44.8,6.2,29.38,SSW,209,4.0,5.4,20,0.00,,---,0.00,VWS V13.01,2013-03-28 00:19:00,
2013-03-27 20:24:00,44.6,8.1,29.38,SSW,209,0.0,4.0,22,0.00,,---,0.00,VWS V13.01,2013-03-28 00:24:00,
2013-03-27 20:34:00,44.6,6.0,29.41,SSW,210,3.6,4.9,20,0.00,,---,0.00,VWS V13.01,2013-03-28 00:34:00,
2013-03-27 20:39:00,44.6,8.1,29.41,SSW,210,2.2,3.6,22,0.00,,---,0.00,VWS V13.01,2013-03-28 00:39:00,
2013-03-27 20:44:00,44.2,8.8,29.41,SSW,211,0.0,2.2,23,0.00,,---,0.00,VWS V13.01,2013-03-28 00:44:00,
2013-03-27 20:49:00,43.3,8.0,29.41,SSW,209,0.0,8.1,23,0.00,,---,0.00,VWS V13.01,2013-03-28 00:49:00,
2013-03-27 20:59:00,43.7,5.3,29.41,South,182,3.1,8.3,20,0.00,,---,0.00,VWS V13.01,2013-03-28 00:59:00,
2013-03-27 21:04:00,44.2,5.7,29.41,SSW,196,2.7,4.0,20,0.00,,---,0.00,VWS V13.01,2013-03-28 01:04:00,
2013-03-27 21:09:00,44.2,5.7,29.41,SSW,206,3.1,8.1,20,0.00,,---,0.00,VWS V13.01,2013-03-28 01:09:00,
2013-03-27 21:19:00,44.4,5.9,29.41,SSW,199,6.3,7.6,20,0.00,,---,0.00,VWS V13.01,2013-03-28 01:19:00,
2013-03-27 21:24:00,44.4,5.9,29.41,SSW,206,3.6,6.3,20,0.00,,---,0.00,VWS V13.01,2013-03-28 01:24:00,
2013-03-27 21:29:00,44.6,6.0,29.41,SW,214,3.1,7.6,20,0.00,,---,0.00,VWS V13.01,2013-03-28 01:29:00,
2013-03-27 21:34:00,44.6,6.0,29.41,South,190,5.4,6.3,20,0.00,,---,0.00,VWS V13.01,2013-03-28 01:34:00,
2013-03-27 21:39:00,44.4,5.9,29.41,South,191,2.2,5.8,20,0.00,,---,0.00,VWS V13.01,2013-03-28 01:39:00,
2013-03-27 21:44:00,44.2,5.7,29.41,South,191,3.1,3.6,20,0.00,,---,0.00,VWS V13.01,2013-03-28 01:44:00,
2013-03-27 21:49:00,43.9,5.4,29.41,SSW,203,4.9,5.8,20,0.00,,---,0.00,VWS V13.01,2013-03-28 01:49:00,
2013-03-27 21:59:00,43.5,5.1,29.41,SSW,194,0.0,4.0,20,0.00,,---,0.00,VWS V13.01,2013-03-28 01:59:00,
2013-03-27 22:04:00,43.2,4.8,29.41,SSW,195,3.1,5.4,20,0.00,,---,0.00,VWS V13.01,2013-03-28 02:04:00,
2013-03-27 22:09:00,43.0,4.7,29.41,South,181,4.0,4.9,20,0.00,,---,0.00,VWS V13.01,2013-03-28 02:09:00,
2013-03-27 22:14:00,42.6,5.4,29.41,South,171,4.0,5.8,21,0.00,,---,0.00,VWS V13.01,2013-03-28 02:14:00,
2013-03-27 22:19:00,42.3,7.1,29.41,South,170,4.0,4.9,23,0.00,,---,0.00,VWS V13.01,2013-03-28 02:19:00,
2013-03-27 22:24:00,41.9,6.8,29.41,South,173,4.0,8.1,23,0.00,,---,0.00,VWS V13.01,2013-03-28 02:24:00,
2013-03-27 22:29:00,41.7,6.7,29.41,SSW,195,4.0,6.3,23,0.00,,---,0.00,VWS V13.01,2013-03-28 02:29:00,
2013-03-27 22:34:00,41.9,6.8,29.41,SSW,212,6.3,8.7,23,0.00,,---,0.00,VWS V13.01,2013-03-28 02:34:00,
2013-03-27 22:39:00,42.1,7.0,29.41,South,181,4.9,8.7,23,0.00,,---,0.00,VWS V13.01,2013-03-28 02:39:00,
2013-03-27 22:44:00,42.3,7.1,29.41,WSW,239,4.9,10.1,23,0.00,,---,0.00,VWS V13.01,2013-03-28 02:44:00,
2013-03-27 22:49:00,42.4,7.3,29.41,SSW,194,5.4,10.5,23,0.00,,---,0.00,VWS V13.01,2013-03-28 02:49:00,
2013-03-27 22:54:00,42.6,7.4,29.41,SSW,195,8.1,10.1,23,0.00,,---,0.00,VWS V13.01,2013-03-28 02:54:00,
2013-03-27 22:59:00,42.6,7.4,29.41,SSE,156,3.1,11.0,23,0.00,,---,0.00,VWS V13.01,2013-03-28 02:59:00,
2013-03-27 23:04:00,42.6,7.4,29.41,South,177,5.4,11.0,23,0.00,,---,0.00,VWS V13.01,2013-03-28 03:04:00,
2013-03-27 23:09:00,42.6,7.4,29.41,WNW,298,3.6,8.1,23,0.00,,---,0.00,VWS V13.01,2013-03-28 03:09:00,
2013-03-27 23:14:00,42.6,7.4,29.41,SW,225,2.7,8.3,23,0.00,,---,0.00,VWS V13.01,2013-03-28 03:14:00,
2013-03-27 23:19:00,42.4,7.3,29.41,SSW,213,7.6,10.1,23,0.00,,---,0.00,VWS V13.01,2013-03-28 03:19:00,
2013-03-27 23:29:00,42.4,7.3,29.41,SSW,199,7.2,10.1,23,0.00,,---,0.00,VWS V13.01,2013-03-28 03:29:00,
2013-03-27 23:34:00,42.3,7.1,29.41,East,85,5.8,7.2,23,0.00,,---,0.00,VWS V13.01,2013-03-28 03:34:00,
2013-03-27 23:44:00,42.3,7.1,29.41,SSW,209,6.3,6.7,23,0.00,,---,0.00,VWS V13.01,2013-03-28 03:44:00,
2013-03-27 23:54:00,41.9,6.8,29.41,WSW,256,0.0,5.8,23,0.00,,---,0.00,VWS V13.01,2013-03-28 03:54:00,
2013-03-27 23:59:00,41.7,6.7,29.41,West,271,5.8,6.3,23,0.00,,---,0.00,VWS V13.01,2013-03-28 03:59:00,